Precipitable_Water
0.84 0.81 0.77 0.75 0.72 0.71 0.69 0.66 0.63 0.62 0.59 0.57 0.56 0.56 0.55 0.55 0.55 0.57 0.58 0.59 0.60 0.60 0.60 0.60 0.61 0.58 0.57 0.57 0.56 0.54 0.53 0.41 0.35 0.31 0.27 0.25 0.31 0.32 0.30 0.34 0.35 0.37 0.35 0.33 0.30 0.26 0.23 0.24 0.21 0.24 0.24 0.23 0.23 0.22 0.25 0.25 0.26 0.25 0.17 0.15 0.12 0.13 0.12 0.14 0.12 0.13 0.14 0.17 0.19 0.19 0.20 0.19 0.33 0.63 0.60 0.58 0.53 0.56 0.65 0.67 0.79 0.92 0.92 1.05 1.10 1.20 1.26 1.32
0.86 0.84 0.82 0.78 0.76 0.73 0.71 0.69 0.66 0.63 0.60 0.58 0.56 0.56 0.56 0.55 0.55 0.55 0.60 0.59 0.59 0.60 0.62 0.63 0.61 0.60 0.59 0.56 0.56 0.56 0.49 0.39 0.28 0.27 0.25 0.33 0.39 0.39 0.39 0.40 0.42 0.40 0.34 0.24 0.23 0.25 0.22 0.21 0.20 0.21 0.19 0.18 0.25 0.20 0.26 0.21 0.27 0.19 0.17 0.16 0.12 0.14 0.15 0.16 0.16 0.16 0.16 0.18 0.21 0.21 0.22 0.21 0.45 0.67 0.66 0.45 0.46 0.52 0.52 0.63 0.72 0.74 0.90 1.04 1.15 1.18 1.18 1.22
0.87 0.86 0.84 0.82 0.79 0.76 0.74 0.71 0.69 0.66 0.63 0.59 0.56 0.55 0.56 0.56 0.56 0.55 0.55 0.59 0.59 0.58 0.61 0.63 0.64 0.59 0.57 0.57 0.55 0.56 0.47 0.32 0.28 0.20 0.27 0.53 0.46 0.42 0.43 0.43 0.44 0.45 0.34 0.24 0.24 0.26 0.25 0.23 0.21 0.19 0.17 0.15 0.20 0.17 0.22 0.18 0.23 0.22 0.16 0.13 0.15 0.18 0.18 0.17 0.17 0.16 0.19 0.22 0.22 0.22 0.22 0.22 0.36 0.50 0.77 0.53 0.49 0.55 0.43 0.46 0.61 0.65 0.70 0.87 1.04 1.13 1.15 1.16
0.82 0.84 0.86 0.85 0.83 0.80 0.77 0.74 0.71 0.69 0.65 0.62 0.57 0.56 0.55 0.56 0.56 0.58 0.55 0.57 0.58 0.60 0.61 0.62 0.63 0.61 0.57 0.53 0.58 0.52 0.39 0.32 0.20 0.26 0.41 0.50 0.43 0.41 0.44 0.45 0.45 0.46 0.38 0.31 0.33 0.31 0.31 0.28 0.23 0.19 0.16 0.14 0.17 0.20 0.17 0.21 0.18 0.22 0.18 0.14 0.17 0.20 0.17 0.18 0.19 0.19 0.22 0.25 0.24 0.24 0.24 0.23 0.26 0.28 0.55 0.62 0.49 0.51 0.53 0.61 0.52 0.52 0.68 0.82 0.99 1.09 1.12 1.11
0.80 0.82 0.82 0.84 0.84 0.83 0.80 0.77 0.74 0.71 0.68 0.64 0.61 0.57 0.57 0.56 0.54 0.55 0.57 0.57 0.60 0.59 0.60 0.60 0.61 0.62 0.58 0.58 0.51 0.49 0.37 0.19 0.21 0.39 0.47 0.49 0.39 0.40 0.46 0.49 0.48 0.45 0.35 0.29 0.31 0.31 0.31 0.26 0.23 0.20 0.16 0.13 0.17 0.18 0.16 0.20 0.22 0.21 0.16 0.20 0.20 0.22 0.18 0.20 0.21 0.22 0.23 0.26 0.25 0.25 0.23 0.24 0.29 0.39 0.53 0.61 0.42 0.39 0.54 0.65 0.73 0.80 0.78 0.80 0.90 1.03 1.09 1.05
0.79 0.80 0.81 0.83 0.84 0.83 0.82 0.80 0.77 0.75 0.71 0.68 0.64 0.60 0.59 0.56 0.54 0.54 0.59 0.60 0.61 0.60 0.58 0.57 0.59 0.60 0.60 0.58 0.50 0.41 0.29 0.12 0.33 0.41 0.52 0.47 0.39 0.38 0.49 0.52 0.50 0.44 0.34 0.26 0.24 0.27 0.28 0.25 0.22 0.17 0.14 0.14 0.15 0.13 0.16 0.19 0.22 0.13 0.16 0.19 0.22 0.24 0.20 0.22 0.23 0.23 0.24 0.25 0.25 0.24 0.26 0.28 0.29 0.39 0.59 0.63 0.58 0.61 0.76 0.82 0.85 0.90 1.03 1.08 1.07 1.03 1.01 1.00
0.78 0.79 0.80 0.80 0.82 0.83 0.83 0.82 0.80 0.77 0.74 0.71 0.68 0.64 0.61 0.58 0.56 0.57 0.59 0.58 0.59 0.60 0.56 0.55 0.59 0.61 0.59 0.56 0.47 0.39 0.25 0.23 0.39 0.51 0.53 0.50 0.43 0.37 0.52 0.59 0.56 0.41 0.30 0.22 0.23 0.24 0.26 0.23 0.20 0.16 0.14 0.14 0.16 0.15 0.16 0.17 0.20 0.15 0.13 0.17 0.20 0.25 0.21 0.23 0.22 0.23 0.24 0.26 0.25 0.27 0.29 0.26 0.30 0.37 0.68 0.67 0.78 0.88 0.89 0.92 0.98 1.02 1.08 1.13 1.03 1.02 1.01 0.97
0.75 0.76 0.77 0.78 0.80 0.82 0.83 0.83 0.82 0.79 0.76 0.73 0.71 0.68 0.64 0.61 0.57 0.56 0.55 0.55 0.55 0.56 0.57 0.56 0.60 0.60 0.60 0.47 0.35 0.27 0.26 0.20 0.31 0.48 0.52 0.50 0.45 0.40 0.46 0.56 0.51 0.41 0.27 0.19 0.21 0.23 0.24 0.21 0.19 0.19 0.15 0.12 0.14 0.15 0.18 0.17 0.18 0.14 0.13 0.17 0.20 0.23 0.23 0.23 0.23 0.23 0.25 0.26 0.28 0.27 0.25 0.29 0.43 0.51 0.72 0.70 0.85 0.93 0.95 1.00 1.01 1.06 1.06 1.09 1.05 1.00 1.03 1.02
0.75 0.74 0.74 0.75 0.77 0.79 0.81 0.82 0.82 0.80 0.79 0.76 0.73 0.71 0.68 0.64 0.57 0.57 0.55 0.55 0.55 0.53 0.55 0.61 0.60 0.60 0.60 0.47 0.32 0.24 0.19 0.25 0.31 0.42 0.47 0.46 0.46 0.42 0.39 0.42 0.47 0.37 0.25 0.21 0.22 0.24 0.23 0.21 0.21 0.19 0.13 0.13 0.18 0.15 0.18 0.16 0.14 0.16 0.16 0.17 0.19 0.22 0.23 0.23 0.23 0.24 0.26 0.26 0.27 0.25 0.27 0.47 0.62 0.85 0.69 0.78 0.88 0.96 1.02 0.98 0.99 1.01 0.99 1.01 1.00 1.02 1.02 1.02
0.72 0.73 0.74 0.74 0.75 0.76 0.79 0.83 0.83 0.83 0.81 0.79 0.76 0.72 0.70 0.65 0.61 0.60 0.56 0.56 0.57 0.55 0.57 0.61 0.62 0.61 0.52 0.40 0.32 0.18 0.22 0.36 0.38 0.38 0.43 0.44 0.43 0.42 0.39 0.37 0.45 0.36 0.25 0.22 0.22 0.24 0.21 0.22 0.21 0.22 0.21 0.16 0.19 0.16 0.18 0.17 0.15 0.19 0.17 0.18 0.19 0.23 0.24 0.24 0.22 0.24 0.25 0.25 0.26 0.24 0.30 0.48 0.69 0.73 0.53 0.83 0.91 0.97 0.96 0.95 0.98 0.95 0.92 0.99 1.03 1.09 1.12 1.09
0.71 0.73 0.73 0.73 0.73 0.74 0.76 0.79 0.81 0.81 0.81 0.80 0.78 0.74 0.72 0.68 0.65 0.61 0.58 0.56 0.59 0.58 0.57 0.59 0.63 0.60 0.46 0.42 0.25 0.17 0.38 0.36 0.41 0.38 0.40 0.42 0.40 0.37 0.39 0.37 0.41 0.35 0.28 0.23 0.21 0.25 0.24 0.24 0.26 0.25 0.22 0.17 0.18 0.17 0.17 0.17 0.20 0.19 0.19 0.18 0.19 0.22 0.23 0.23 0.22 0.23 0.24 0.24 0.26 0.24 0.24 0.51 0.65 0.66 0.64 0.77 0.93 0.99 0.90 0.93 0.94 0.95 0.96 1.02 1.08 1.11 1.16 1.18
0.67 0.69 0.70 0.71 0.72 0.73 0.75 0.77 0.79 0.81 0.83 0.81 0.79 0.76 0.73 0.70 0.67 0.63 0.60 0.57 0.53 0.57 0.58 0.58 0.60 0.59 0.49 0.38 0.28 0.21 0.36 0.33 0.38 0.38 0.39 0.40 0.36 0.37 0.41 0.40 0.39 0.35 0.29 0.21 0.22 0.26 0.26 0.25 0.27 0.24 0.16 0.23 0.16 0.18 0.18 0.21 0.18 0.17 0.17 0.14 0.16 0.18 0.18 0.20 0.19 0.22 0.24 0.24 0.26 0.25 0.32 0.36 0.49 0.46 0.74 0.91 0.98 0.99 0.95 0.94 0.95 0.96 1.01 1.06 1.13 1.15 1.19 1.20
0.64 0.65 0.67 0.69 0.71 0.71 0.72 0.75 0.79 0.80 0.82 0.82 0.80 0.78 0.75 0.72 0.69 0.65 0.63 0.60 0.55 0.51 0.56 0.59 0.59 0.59 0.46 0.27 0.29 0.36 0.38 0.37 0.36 0.37 0.35 0.39 0.38 0.38 0.38 0.42 0.39 0.38 0.33 0.25 0.22 0.27 0.28 0.24 0.25 0.23 0.23 0.22 0.18 0.14 0.19 0.20 0.18 0.17 0.16 0.15 0.15 0.16 0.16 0.19 0.20 0.22 0.23 0.24 0.26 0.28 0.18 0.22 0.38 0.54 0.82 0.98 0.98 1.01 0.96 0.96 1.00 1.02 1.07 1.13 1.16 1.21 1.24 1.30
0.58 0.62 0.63 0.65 0.68 0.69 0.70 0.72 0.74 0.77 0.79 0.80 0.80 0.79 0.77 0.74 0.70 0.68 0.64 0.61 0.60 0.55 0.53 0.59 0.62 0.53 0.42 0.28 0.35 0.38 0.39 0.37 0.35 0.32 0.30 0.36 0.34 0.31 0.34 0.39 0.40 0.38 0.37 0.29 0.28 0.31 0.31 0.28 0.25 0.24 0.24 0.21 0.19 0.21 0.18 0.17 0.17 0.14 0.15 0.15 0.13 0.13 0.13 0.17 0.18 0.21 0.21 0.25 0.25 0.28 0.18 0.20 0.34 0.55 0.88 1.06 1.07 1.02 0.93 0.98 1.02 1.05 1.09 1.12 1.14 1.12 1.09 1.14
0.54 0.57 0.59 0.61 0.64 0.67 0.67 0.69 0.72 0.74 0.78 0.79 0.80 0.81 0.79 0.75 0.71 0.69 0.68 0.65 0.62 0.59 0.54 0.59 0.58 0.46 0.32 0.30 0.39 0.37 0.37 0.39 0.30 0.28 0.32 0.30 0.31 0.29 0.29 0.33 0.37 0.37 0.35 0.33 0.30 0.33 0.34 0.31 0.26 0.21 0.20 0.24 0.23 0.18 0.16 0.15 0.15 0.15 0.12 0.10 0.12 0.12 0.14 0.17 0.19 0.21 0.19 0.23 0.27 0.25 0.17 0.19 0.32 0.68 0.85 0.98 1.00 1.05 1.00 0.97 0.98 1.00 1.03 1.02 1.06 1.07 1.06 1.18
0.53 0.53 0.53 0.56 0.59 0.63 0.65 0.67 0.69 0.71 0.73 0.77 0.79 0.81 0.80 0.77 0.73 0.70 0.68 0.65 0.64 0.62 0.60 0.48 0.48 0.44 0.33 0.23 0.26 0.43 0.35 0.26 0.25 0.31 0.34 0.33 0.31 0.27 0.30 0.31 0.36 0.36 0.34 0.31 0.33 0.34 0.34 0.32 0.23 0.21 0.20 0.22 0.19 0.17 0.15 0.14 0.14 0.14 0.12 0.11 0.10 0.11 0.13 0.15 0.18 0.20 0.22 0.22 0.26 0.22 0.17 0.22 0.29 0.74 0.84 0.91 0.78 0.85 0.93 0.96 0.94 0.97 1.00 1.01 1.03 1.08 1.06 1.08
0.47 0.49 0.51 0.52 0.54 0.57 0.61 0.63 0.66 0.69 0.71 0.74 0.77 0.78 0.78 0.77 0.74 0.71 0.68 0.64 0.61 0.62 0.54 0.43 0.50 0.50 0.24 0.39 0.44 0.29 0.24 0.27 0.33 0.31 0.33 0.36 0.32 0.29 0.30 0.29 0.31 0.32 0.32 0.31 0.31 0.32 0.32 0.27 0.24 0.22 0.21 0.18 0.19 0.18 0.13 0.12 0.12 0.12 0.13 0.12 0.12 0.10 0.12 0.13 0.17 0.20 0.21 0.21 0.21 0.22 0.20 0.25 0.36 0.66 0.67 0.78 0.74 0.75 0.81 0.91 1.00 1.05 1.02 1.08 1.10 1.07 1.01 1.03
0.47 0.46 0.46 0.48 0.50 0.51 0.56 0.59 0.62 0.65 0.68 0.71 0.74 0.75 0.73 0.75 0.75 0.70 0.62 0.59 0.60 0.55 0.53 0.58 0.51 0.41 0.29 0.37 0.26 0.28 0.34 0.29 0.30 0.31 0.32 0.35 0.35 0.30 0.27 0.27 0.31 0.32 0.30 0.27 0.29 0.26 0.29 0.23 0.22 0.16 0.17 0.17 0.18 0.17 0.12 0.09 0.11 0.11 0.12 0.11 0.12 0.12 0.13 0.13 0.14 0.17 0.20 0.21 0.19 0.20 0.21 0.29 0.40 0.56 0.61 0.66 0.68 0.72 0.77 0.86 0.94 1.05 1.12 1.11 1.12 1.11 1.07 1.07
0.49 0.49 0.49 0.47 0.46 0.47 0.50 0.55 0.59 0.62 0.66 0.69 0.72 0.75 0.74 0.73 0.70 0.65 0.54 0.52 0.42 0.35 0.27 0.33 0.36 0.20 0.16 0.24 0.30 0.30 0.32 0.34 0.35 0.32 0.27 0.30 0.32 0.32 0.29 0.29 0.30 0.29 0.24 0.22 0.23 0.25 0.26 0.22 0.20 0.16 0.13 0.14 0.15 0.16 0.15 0.14 0.14 0.13 0.13 0.12 0.12 0.11 0.12 0.13 0.17 0.18 0.19 0.19 0.18 0.19 0.19 0.28 0.39 0.49 0.58 0.62 0.68 0.71 0.80 0.95 1.03 1.08 1.13 1.11 1.08 1.23 1.15 1.09
0.51 0.50 0.50 0.50 0.49 0.46 0.47 0.51 0.55 0.59 0.64 0.63 0.65 0.64 0.60 0.48 0.44 0.40 0.52 0.49 0.36 0.31 0.30 0.33 0.37 0.32 0.29 0.29 0.27 0.35 0.38 0.39 0.28 0.30 0.32 0.34 0.28 0.27 0.25 0.25 0.26 0.29 0.25 0.19 0.22 0.23 0.25 0.17 0.14 0.12 0.13 0.14 0.16 0.18 0.19 0.18 0.17 0.16 0.16 0.15 0.13 0.13 0.13 0.16 0.18 0.18 0.20 0.18 0.18 0.19 0.22 0.30 0.35 0.42 0.50 0.59 0.67 0.68 0.77 0.87 0.95 0.98 0.98 1.00 1.04 1.09 1.21 1.14
0.50 0.50 0.50 0.50 0.50 0.49 0.47 0.47 0.52 0.57 0.61 0.61 0.60 0.53 0.39 0.40 0.34 0.30 0.40 0.42 0.44 0.41 0.36 0.35 0.35 0.31 0.28 0.32 0.35 0.32 0.27 0.27 0.32 0.31 0.31 0.41 0.29 0.23 0.22 0.23 0.22 0.21 0.23 0.23 0.21 0.27 0.23 0.17 0.15 0.15 0.15 0.15 0.16 0.19 0.20 0.19 0.18 0.16 0.15 0.15 0.14 0.13 0.12 0.15 0.17 0.18 0.19 0.18 0.17 0.19 0.23 0.30 0.33 0.45 0.56 0.64 0.64 0.63 0.75 0.86 0.85 0.87 0.97 0.92 0.93 0.98 1.06 1.17
0.50 0.49 0.49 0.49 0.49 0.50 0.49 0.48 0.49 0.53 0.58 0.58 0.55 0.48 0.50 0.51 0.54 0.56 0.47 0.31 0.39 0.42 0.40 0.37 0.40 0.36 0.36 0.36 0.38 0.38 0.35 0.26 0.23 0.27 0.32 0.34 0.27 0.18 0.21 0.21 0.19 0.19 0.24 0.25 0.23 0.20 0.18 0.16 0.18 0.18 0.17 0.16 0.17 0.19 0.20 0.20 0.18 0.17 0.16 0.15 0.15 0.14 0.15 0.16 0.18 0.18 0.18 0.17 0.17 0.20 0.20 0.31 0.39 0.54 0.65 0.61 0.59 0.63 0.74 0.82 0.78 0.76 0.83 0.80 0.83 0.86 1.02 1.14
0.51 0.49 0.48 0.47 0.47 0.48 0.49 0.50 0.49 0.51 0.53 0.50 0.46 0.50 0.50 0.60 0.64 0.64 0.58 0.44 0.36 0.40 0.39 0.38 0.35 0.33 0.29 0.36 0.39 0.41 0.29 0.24 0.19 0.24 0.29 0.30 0.24 0.20 0.21 0.19 0.19 0.20 0.23 0.23 0.18 0.17 0.15 0.18 0.20 0.21 0.19 0.16 0.16 0.17 0.19 0.19 0.19 0.17 0.16 0.15 0.14 0.16 0.14 0.13 0.16 0.18 0.19 0.18 0.16 0.19 0.20 0.30 0.41 0.55 0.62 0.66 0.62 0.61 0.71 0.75 0.77 0.79 0.74 0.76 0.77 0.85 1.01 1.07
0.50 0.49 0.47 0.46 0.47 0.47 0.50 0.51 0.54 0.47 0.43 0.45 0.47 0.49 0.62 0.65 0.64 0.61 0.49 0.34 0.31 0.34 0.37 0.35 0.35 0.32 0.28 0.27 0.35 0.35 0.28 0.26 0.25 0.22 0.35 0.30 0.22 0.23 0.21 0.20 0.19 0.20 0.19 0.22 0.21 0.18 0.17 0.21 0.23 0.22 0.20 0.17 0.15 0.16 0.17 0.18 0.17 0.18 0.17 0.16 0.16 0.16 0.16 0.16 0.16 0.18 0.19 0.22 0.21 0.20 0.21 0.26 0.38 0.42 0.52 0.64 0.69 0.63 0.65 0.70 0.75 0.84 0.87 0.92 0.94 0.99 1.07 0.97
0.50 0.49 0.47 0.46 0.46 0.49 0.48 0.49 0.40 0.39 0.44 0.47 0.48 0.58 0.66 0.66 0.64 0.61 0.43 0.37 0.36 0.31 0.45 0.39 0.40 0.35 0.34 0.46 0.44 0.33 0.31 0.30 0.28 0.28 0.33 0.31 0.24 0.21 0.20 0.23 0.21 0.18 0.20 0.23 0.23 0.21 0.20 0.24 0.24 0.21 0.20 0.19 0.17 0.15 0.16 0.17 0.17 0.18 0.19 0.18 0.18 0.18 0.17 0.17 0.18 0.17 0.15 0.15 0.20 0.18 0.13 0.15 0.33 0.43 0.46 0.56 0.63 0.62 0.68 0.66 0.67 0.76 0.82 0.84 0.88 0.96 1.04 1.06
0.50 0.50 0.49 0.47 0.47 0.47 0.49 0.38 0.37 0.44 0.40 0.38 0.48 0.56 0.62 0.62 0.64 0.61 0.45 0.30 0.23 0.28 0.36 0.23 0.41 0.27 0.44 0.32 0.36 0.34 0.38 0.26 0.28 0.28 0.34 0.33 0.31 0.22 0.21 0.20 0.22 0.17 0.21 0.23 0.22 0.23 0.23 0.26 0.23 0.20 0.19 0.19 0.18 0.16 0.16 0.18 0.17 0.17 0.18 0.21 0.19 0.19 0.18 0.17 0.17 0.16 0.13 0.12 0.17 0.20 0.12 0.12 0.27 0.35 0.46 0.51 0.54 0.57 0.67 0.65 0.68 0.74 0.79 0.82 0.90 0.99 0.98 1.00
0.50 0.50 0.50 0.49 0.48 0.50 0.37 0.29 0.44 0.44 0.34 0.39 0.52 0.56 0.60 0.60 0.64 0.59 0.36 0.24 0.19 0.31 0.23 0.32 0.35 0.33 0.39 0.34 0.32 0.34 0.17 0.18 0.29 0.31 0.31 0.37 0.27 0.29 0.18 0.18 0.21 0.23 0.24 0.26 0.22 0.19 0.25 0.25 0.23 0.21 0.19 0.18 0.17 0.16 0.17 0.17 0.17 0.16 0.21 0.23 0.21 0.19 0.18 0.18 0.17 0.17 0.16 0.18 0.18 0.19 0.17 0.14 0.18 0.28 0.48 0.52 0.48 0.53 0.56 0.60 0.64 0.70 0.75 0.78 0.87 0.95 1.02 1.04
0.50 0.50 0.50 0.50 0.50 0.49 0.39 0.42 0.38 0.35 0.40 0.51 0.59 0.58 0.59 0.56 0.60 0.60 0.31 0.15 0.13 0.36 0.27 0.31 0.34 0.49 0.39 0.39 0.37 0.23 0.23 0.32 0.20 0.25 0.31 0.35 0.33 0.25 0.21 0.17 0.18 0.19 0.23 0.23 0.15 0.23 0.24 0.23 0.23 0.20 0.19 0.18 0.17 0.18 0.19 0.19 0.17 0.18 0.21 0.23 0.22 0.21 0.20 0.19 0.18 0.17 0.18 0.16 0.13 0.15 0.21 0.13 0.14 0.27 0.44 0.50 0.42 0.45 0.51 0.56 0.59 0.65 0.74 0.80 0.86 0.92 0.98 1.04
0.51 0.50 0.50 0.51 0.50 0.50 0.50 0.42 0.37 0.33 0.50 0.56 0.60 0.61 0.56 0.57 0.54 0.39 0.22 0.14 0.30 0.30 0.46 0.28 0.48 0.40 0.41 0.41 0.31 0.26 0.27 0.32 0.21 0.24 0.31 0.35 0.35 0.27 0.18 0.19 0.20 0.21 0.23 0.23 0.19 0.21 0.25 0.26 0.25 0.23 0.20 0.17 0.19 0.20 0.20 0.20 0.17 0.20 0.22 0.23 0.24 0.24 0.22 0.20 0.18 0.17 0.17 0.15 0.12 0.14 0.18 0.13 0.15 0.24 0.31 0.44 0.41 0.38 0.44 0.54 0.57 0.61 0.69 0.78 0.86 0.93 1.01 1.06
0.50 0.50 0.50 0.51 0.49 0.46 0.44 0.45 0.37 0.47 0.55 0.58 0.61 0.61 0.57 0.50 0.41 0.24 0.18 0.12 0.37 0.28 0.38 0.36 0.34 0.28 0.39 0.30 0.28 0.26 0.25 0.27 0.32 0.28 0.30 0.27 0.30 0.31 0.24 0.25 0.21 0.21 0.20 0.25 0.24 0.24 0.26 0.30 0.31 0.25 0.21 0.21 0.21 0.22 0.21 0.20 0.20 0.22 0.21 0.21 0.22 0.23 0.22 0.21 0.20 0.18 0.16 0.12 0.12 0.16 0.19 0.15 0.11 0.21 0.27 0.30 0.37 0.39 0.45 0.53 0.60 0.66 0.72 0.80 0.88 0.94 1.02 1.04
0.53 0.51 0.50 0.51 0.42 0.46 0.44 0.34 0.39 0.52 0.62 0.60 0.59 0.57 0.48 0.38 0.25 0.18 0.13 0.17 0.38 0.37 0.39 0.34 0.30 0.39 0.31 0.28 0.23 0.26 0.27 0.27 0.30 0.25 0.23 0.29 0.26 0.26 0.23 0.19 0.23 0.20 0.20 0.21 0.22 0.23 0.25 0.27 0.26 0.27 0.28 0.25 0.24 0.21 0.22 0.22 0.22 0.21 0.19 0.19 0.20 0.21 0.22 0.20 0.19 0.19 0.14 0.10 0.14 0.16 0.16 0.17 0.11 0.17 0.31 0.38 0.44 0.42 0.41 0.43 0.50 0.57 0.65 0.73 0.83 0.93 1.00 1.02
0.56 0.54 0.52 0.51 0.51 0.52 0.37 0.35 0.47 0.58 0.61 0.60 0.58 0.44 0.33 0.19 0.26 0.16 0.14 0.37 0.24 0.34 0.35 0.31 0.36 0.34 0.32 0.32 0.26 0.23 0.23 0.25 0.29 0.23 0.21 0.23 0.23 0.20 0.18 0.14 0.17 0.13 0.14 0.16 0.17 0.22 0.21 0.23 0.26 0.28 0.31 0.26 0.22 0.20 0.20 0.21 0.21 0.20 0.19 0.18 0.16 0.16 0.17 0.15 0.16 0.13 0.12 0.11 0.16 0.16 0.17 0.15 0.14 0.26 0.27 0.35 0.40 0.43 0.45 0.45 0.47 0.51 0.60 0.71 0.80 0.89 0.96 1.01
0.56 0.55 0.53 0.54 0.54 0.48 0.49 0.54 0.58 0.58 0.59 0.57 0.49 0.40 0.23 0.18 0.12 0.19 0.20 0.29 0.26 0.41 0.37 0.46 0.36 0.36 0.33 0.29 0.25 0.25 0.28 0.21 0.27 0.23 0.23 0.24 0.22 0.21 0.21 0.18 0.18 0.16 0.11 0.16 0.17 0.18 0.19 0.24 0.24 0.26 0.28 0.28 0.24 0.18 0.17 0.17 0.19 0.18 0.17 0.16 0.15 0.14 0.14 0.13 0.13 0.14 0.13 0.15 0.19 0.17 0.20 0.13 0.23 0.21 0.32 0.32 0.36 0.42 0.46 0.50 0.51 0.56 0.62 0.69 0.80 0.86 0.92 0.97
0.54 0.53 0.47 0.52 0.54 0.51 0.55 0.58 0.58 0.62 0.55 0.51 0.41 0.29 0.23 0.15 0.16 0.26 0.24 0.30 0.32 0.45 0.44 0.42 0.41 0.40 0.35 0.25 0.25 0.25 0.22 0.26 0.25 0.23 0.23 0.22 0.22 0.18 0.19 0.20 0.19 0.16 0.17 0.16 0.15 0.16 0.13 0.15 0.20 0.23 0.21 0.28 0.25 0.21 0.19 0.17 0.18 0.18 0.19 0.17 0.16 0.15 0.14 0.12 0.13 0.11 0.11 0.13 0.17 0.23 0.15 0.12 0.15 0.20 0.39 0.41 0.47 0.51 0.58 0.59 0.64 0.72 0.77 0.80 0.86 0.89 0.91 0.95
0.54 0.50 0.47 0.51 0.53 0.55 0.57 0.60 0.58 0.59 0.53 0.43 0.31 0.23 0.15 0.15 0.23 0.22 0.24 0.30 0.36 0.39 0.37 0.45 0.38 0.35 0.32 0.31 0.29 0.26 0.25 0.22 0.26 0.23 0.22 0.21 0.18 0.19 0.17 0.18 0.20 0.19 0.18 0.14 0.17 0.17 0.15 0.15 0.20 0.26 0.25 0.28 0.24 0.25 0.23 0.20 0.18 0.19 0.19 0.19 0.16 0.16 0.19 0.15 0.16 0.16 0.15 0.15 0.15 0.16 0.15 0.29 0.26 0.50 0.51 0.51 0.51 0.52 0.55 0.58 0.64 0.70 0.79 0.81 0.81 0.85 0.90 0.96
0.51 0.44 0.47 0.44 0.47 0.55 0.59 0.62 0.58 0.57 0.46 0.34 0.22 0.17 0.16 0.22 0.21 0.30 0.28 0.40 0.39 0.34 0.37 0.41 0.39 0.32 0.32 0.31 0.28 0.24 0.28 0.24 0.25 0.24 0.22 0.21 0.21 0.18 0.20 0.20 0.19 0.20 0.17 0.14 0.17 0.15 0.16 0.14 0.20 0.24 0.24 0.27 0.26 0.26 0.24 0.23 0.14 0.18 0.18 0.15 0.16 0.21 0.20 0.18 0.18 0.21 0.19 0.16 0.13 0.20 0.19 0.28 0.49 0.51 0.55 0.51 0.49 0.52 0.56 0.58 0.62 0.65 0.72 0.77 0.78 0.84 0.90 0.95
0.45 0.43 0.37 0.43 0.46 0.56 0.61 0.61 0.60 0.52 0.43 0.30 0.19 0.14 0.22 0.26 0.33 0.32 0.37 0.36 0.39 0.40 0.37 0.29 0.31 0.31 0.29 0.26 0.24 0.24 0.25 0.28 0.25 0.23 0.19 0.23 0.20 0.21 0.19 0.20 0.22 0.21 0.22 0.18 0.17 0.20 0.14 0.16 0.20 0.21 0.19 0.26 0.29 0.28 0.26 0.24 0.24 0.19 0.15 0.18 0.22 0.23 0.23 0.18 0.15 0.17 0.15 0.13 0.13 0.19 0.17 0.22 0.19 0.18 0.48 0.49 0.46 0.49 0.54 0.56 0.58 0.64 0.69 0.72 0.77 0.82 0.86 0.90
0.41 0.40 0.40 0.43 0.52 0.59 0.59 0.57 0.56 0.47 0.37 0.25 0.16 0.20 0.30 0.26 0.37 0.37 0.40 0.39 0.41 0.40 0.35 0.33 0.33 0.39 0.29 0.27 0.22 0.24 0.26 0.23 0.24 0.23 0.20 0.21 0.18 0.25 0.21 0.19 0.22 0.22 0.22 0.23 0.18 0.18 0.20 0.14 0.18 0.21 0.22 0.24 0.28 0.28 0.24 0.25 0.25 0.20 0.17 0.24 0.16 0.15 0.14 0.18 0.17 0.13 0.12 0.11 0.12 0.17 0.21 0.21 0.20 0.25 0.38 0.41 0.43 0.45 0.49 0.54 0.56 0.59 0.64 0.69 0.74 0.78 0.86 0.91
0.41 0.36 0.30 0.42 0.55 0.60 0.56 0.56 0.50 0.38 0.29 0.18 0.18 0.18 0.27 0.31 0.38 0.38 0.40 0.41 0.42 0.38 0.32 0.35 0.32 0.36 0.36 0.27 0.28 0.29 0.26 0.22 0.25 0.22 0.19 0.21 0.17 0.23 0.22 0.21 0.20 0.23 0.23 0.23 0.19 0.21 0.20 0.14 0.16 0.21 0.21 0.23 0.25 0.24 0.19 0.20 0.24 0.24 0.23 0.19 0.22 0.18 0.15 0.15 0.16 0.19 0.16 0.12 0.12 0.12 0.19 0.15 0.24 0.32 0.38 0.36 0.40 0.41 0.46 0.50 0.51 0.54 0.60 0.66 0.71 0.76 0.81 0.84
0.36 0.28 0.25 0.46 0.55 0.60 0.56 0.52 0.40 0.31 0.22 0.16 0.20 0.21 0.31 0.30 0.35 0.41 0.42 0.40 0.36 0.36 0.34 0.34 0.38 0.33 0.35 0.32 0.31 0.26 0.27 0.25 0.24 0.22 0.22 0.22 0.18 0.25 0.22 0.24 0.20 0.21 0.23 0.23 0.20 0.23 0.18 0.20 0.13 0.17 0.22 0.23 0.18 0.21 0.20 0.21 0.19 0.19 0.19 0.17 0.18 0.17 0.20 0.18 0.20 0.17 0.16 0.14 0.13 0.12 0.13 0.17 0.25 0.38 0.39 0.36 0.40 0.43 0.44 0.44 0.50 0.55 0.63 0.66 0.72 0.76 0.81 0.87
0.43 0.30 0.29 0.50 0.55 0.57 0.51 0.41 0.28 0.21 0.19 0.26 0.30 0.27 0.30 0.29 0.36 0.38 0.41 0.43 0.39 0.45 0.37 0.36 0.37 0.34 0.34 0.31 0.28 0.31 0.26 0.26 0.25 0.22 0.21 0.23 0.20 0.17 0.24 0.23 0.22 0.20 0.23 0.23 0.20 0.20 0.18 0.17 0.15 0.17 0.17 0.17 0.19 0.23 0.24 0.23 0.22 0.19 0.18 0.17 0.17 0.16 0.15 0.12 0.12 0.20 0.19 0.17 0.15 0.12 0.11 0.24 0.32 0.46 0.42 0.37 0.39 0.43 0.49 0.50 0.54 0.62 0.63 0.66 0.74 0.82 0.86 0.89
0.36 0.24 0.29 0.53 0.55 0.51 0.38 0.22 0.23 0.26 0.24 0.22 0.24 0.28 0.27 0.38 0.36 0.36 0.38 0.42 0.40 0.37 0.45 0.39 0.42 0.41 0.37 0.33 0.32 0.30 0.27 0.24 0.24 0.23 0.22 0.21 0.22 0.21 0.23 0.26 0.22 0.22 0.19 0.18 0.18 0.21 0.20 0.19 0.17 0.15 0.16 0.17 0.20 0.23 0.24 0.25 0.24 0.22 0.21 0.19 0.20 0.18 0.17 0.13 0.11 0.13 0.18 0.20 0.25 0.23 0.16 0.17 0.42 0.50 0.51 0.46 0.46 0.51 0.58 0.60 0.61 0.66 0.68 0.73 0.79 0.84 0.87 0.93
0.32 0.28 0.43 0.51 0.53 0.46 0.30 0.20 0.26 0.22 0.22 0.27 0.33 0.34 0.38 0.36 0.35 0.38 0.35 0.38 0.34 0.41 0.39 0.41 0.41 0.40 0.42 0.38 0.35 0.31 0.30 0.24 0.24 0.22 0.23 0.22 0.22 0.23 0.25 0.25 0.24 0.21 0.20 0.19 0.20 0.20 0.22 0.16 0.15 0.17 0.18 0.20 0.21 0.24 0.24 0.25 0.25 0.22 0.22 0.22 0.20 0.17 0.16 0.15 0.14 0.17 0.15 0.20 0.17 0.18 0.14 0.25 0.44 0.55 0.53 0.54 0.57 0.61 0.65 0.65 0.63 0.65 0.68 0.73 0.78 0.81 0.84 0.89
0.35 0.31 0.34 0.47 0.50 0.43 0.26 0.16 0.18 0.22 0.24 0.28 0.31 0.32 0.36 0.33 0.32 0.32 0.33 0.36 0.34 0.35 0.36 0.38 0.42 0.47 0.41 0.45 0.38 0.30 0.32 0.22 0.25 0.25 0.22 0.24 0.22 0.26 0.26 0.26 0.24 0.21 0.19 0.18 0.16 0.24 0.15 0.17 0.15 0.15 0.14 0.15 0.17 0.20 0.20 0.23 0.23 0.21 0.20 0.21 0.21 0.20 0.19 0.20 0.19 0.19 0.14 0.15 0.15 0.14 0.11 0.19 0.38 0.55 0.57 0.58 0.57 0.58 0.61 0.66 0.68 0.64 0.67 0.72 0.76 0.81 0.86 0.90
0.41 0.42 0.39 0.42 0.49 0.42 0.24 0.29 0.27 0.24 0.24 0.26 0.28 0.27 0.30 0.32 0.37 0.36 0.35 0.34 0.40 0.39 0.38 0.39 0.43 0.44 0.42 0.44 0.37 0.36 0.34 0.30 0.24 0.28 0.27 0.25 0.23 0.30 0.25 0.26 0.25 0.22 0.21 0.21 0.19 0.23 0.16 0.17 0.16 0.13 0.11 0.09 0.10 0.11 0.12 0.14 0.17 0.20 0.22 0.21 0.21 0.21 0.20 0.18 0.15 0.16 0.12 0.16 0.16 0.13 0.14 0.24 0.40 0.49 0.52 0.56 0.57 0.58 0.64 0.66 0.70 0.73 0.71 0.73 0.77 0.80 0.84 0.87
0.35 0.26 0.33 0.36 0.40 0.37 0.33 0.37 0.33 0.30 0.27 0.28 0.27 0.31 0.33 0.31 0.37 0.41 0.41 0.38 0.42 0.41 0.42 0.42 0.44 0.45 0.41 0.40 0.35 0.31 0.30 0.36 0.30 0.26 0.27 0.23 0.30 0.30 0.25 0.26 0.25 0.25 0.23 0.22 0.23 0.21 0.17 0.19 0.17 0.16 0.15 0.11 0.12 0.16 0.20 0.19 0.19 0.18 0.19 0.20 0.20 0.21 0.22 0.21 0.20 0.16 0.12 0.15 0.14 0.15 0.17 0.22 0.27 0.37 0.44 0.51 0.54 0.53 0.55 0.60 0.62 0.65 0.71 0.77 0.80 0.82 0.85 0.86
0.42 0.30 0.29 0.24 0.33 0.33 0.30 0.33 0.30 0.31 0.27 0.34 0.26 0.34 0.29 0.32 0.34 0.35 0.46 0.35 0.44 0.43 0.43 0.43 0.42 0.38 0.38 0.38 0.36 0.34 0.35 0.32 0.34 0.31 0.27 0.26 0.33 0.33 0.30 0.25 0.25 0.26 0.26 0.26 0.25 0.22 0.18 0.16 0.17 0.18 0.18 0.19 0.17 0.16 0.19 0.19 0.17 0.18 0.19 0.20 0.22 0.21 0.22 0.21 0.17 0.15 0.18 0.15 0.12 0.18 0.21 0.18 0.22 0.32 0.41 0.47 0.52 0.57 0.61 0.62 0.64 0.67 0.70 0.72 0.76 0.81 0.84 0.86
0.34 0.39 0.41 0.39 0.29 0.23 0.26 0.26 0.30 0.29 0.33 0.35 0.31 0.35 0.31 0.30 0.31 0.29 0.38 0.43 0.45 0.47 0.38 0.40 0.42 0.42 0.41 0.39 0.39 0.33 0.33 0.32 0.32 0.27 0.31 0.31 0.34 0.35 0.31 0.29 0.23 0.25 0.28 0.27 0.26 0.22 0.18 0.15 0.18 0.19 0.19 0.20 0.21 0.20 0.23 0.23 0.21 0.19 0.19 0.20 0.20 0.21 0.21 0.19 0.18 0.20 0.19 0.14 0.12 0.19 0.23 0.17 0.21 0.26 0.34 0.41 0.46 0.48 0.55 0.61 0.65 0.70 0.72 0.75 0.77 0.78 0.79 0.81
0.46 0.45 0.44 0.50 0.35 0.36 0.35 0.35 0.36 0.34 0.32 0.35 0.33 0.34 0.30 0.30 0.30 0.35 0.36 0.38 0.42 0.40 0.44 0.33 0.38 0.40 0.39 0.40 0.39 0.34 0.36 0.29 0.27 0.33 0.32 0.31 0.32 0.33 0.29 0.29 0.28 0.28 0.28 0.27 0.25 0.25 0.20 0.17 0.19 0.20 0.20 0.21 0.23 0.27 0.30 0.26 0.26 0.25 0.21 0.20 0.21 0.21 0.20 0.19 0.19 0.21 0.20 0.18 0.19 0.21 0.23 0.19 0.22 0.27 0.34 0.46 0.58 0.62 0.66 0.71 0.73 0.72 0.72 0.74 0.76 0.78 0.79 0.81
0.38 0.39 0.38 0.47 0.45 0.42 0.42 0.41 0.39 0.37 0.33 0.37 0.30 0.32 0.33 0.32 0.32 0.37 0.41 0.39 0.35 0.38 0.46 0.38 0.39 0.44 0.44 0.41 0.39 0.34 0.35 0.35 0.34 0.29 0.35 0.35 0.35 0.39 0.34 0.32 0.29 0.29 0.28 0.25 0.24 0.26 0.20 0.17 0.20 0.21 0.19 0.21 0.26 0.27 0.28 0.29 0.27 0.24 0.27 0.24 0.21 0.21 0.21 0.20 0.20 0.21 0.21 0.20 0.22 0.22 0.23 0.23 0.34 0.42 0.46 0.54 0.60 0.66 0.67 0.67 0.68 0.71 0.74 0.75 0.76 0.78 0.79 0.80
0.52 0.54 0.51 0.41 0.36 0.39 0.43 0.41 0.38 0.36 0.33 0.35 0.32 0.33 0.33 0.34 0.34 0.40 0.39 0.47 0.42 0.38 0.41 0.39 0.44 0.43 0.45 0.43 0.40 0.38 0.39 0.38 0.39 0.39 0.40 0.40 0.33 0.42 0.36 0.36 0.41 0.26 0.25 0.25 0.23 0.24 0.20 0.22 0.24 0.21 0.18 0.20 0.26 0.26 0.27 0.28 0.28 0.26 0.26 0.25 0.22 0.20 0.19 0.20 0.19 0.21 0.19 0.18 0.21 0.21 0.20 0.20 0.34 0.44 0.49 0.53 0.56 0.57 0.57 0.62 0.66 0.70 0.74 0.76 0.77 0.78 0.80 0.82
0.60 0.61 0.58 0.48 0.35 0.40 0.36 0.41 0.39 0.36 0.31 0.36 0.35 0.35 0.34 0.35 0.39 0.41 0.34 0.46 0.49 0.48 0.47 0.44 0.45 0.44 0.41 0.41 0.39 0.43 0.47 0.47 0.45 0.46 0.46 0.49 0.53 0.50 0.50 0.48 0.45 0.34 0.24 0.24 0.26 0.22 0.20 0.23 0.21 0.20 0.17 0.19 0.27 0.28 0.28 0.24 0.23 0.21 0.22 0.24 0.24 0.22 0.22 0.23 0.24 0.25 0.22 0.23 0.20 0.18 0.17 0.21 0.30 0.40 0.40 0.46 0.51 0.54 0.58 0.62 0.65 0.70 0.75 0.77 0.78 0.78 0.80 0.84
Wind_Speed
29 28 28 27 27 27 27 27 27 26 26 26 26 26 26 26 27 27 27 27 27 27 27 27 27 27 28 28 28 28 28 29 30 30 31 31 31 32 32 31 30 29 29 27 26 25 23 23 22 22 22 21 21 20 20 20 19 20 19 20 21 20 19 17 17 17 16 15 15 14 13 13 12 13 14 14 15 15 15 14 13 13 12 13 14 16 15 14
30 29 29 28 28 28 28 28 27 27 27 27 27 27 27 27 26 27 27 27 27 27 27 26 26 27 27 27 27 27 28 28 30 30 30 30 31 32 32 33 32 30 29 28 27 26 25 24 23 22 22 21 20 20 21 20 20 20 18 20 20 18 17 17 18 17 17 17 16 14 13 13 13 14 15 16 17 17 16 15 14 13 13 14 15 16 15 15
30 30 30 29 29 29 29 28 28 28 28 27 27 27 27 27 27 27 27 27 27 27 27 27 26 26 26 27 27 27 27 28 28 29 28 28 29 30 32 33 33 31 30 28 27 27 26 24 23 23 22 21 20 20 21 20 21 20 19 20 19 17 17 18 19 19 19 19 17 15 14 13 14 15 16 17 18 18 18 16 16 16 16 16 16 16 16 15
30 30 30 30 30 30 29 29 29 28 28 28 28 27 27 28 28 27 27 27 27 27 27 27 26 26 26 26 26 26 26 27 27 27 26 26 27 28 31 32 32 32 31 28 27 26 25 24 24 23 22 21 20 20 21 20 20 19 20 19 17 17 18 18 19 20 21 20 18 16 15 14 14 15 17 18 18 18 19 18 16 17 18 18 18 17 17 17
31 31 31 31 31 30 30 30 29 29 29 28 28 28 28 28 28 28 27 27 27 27 27 27 27 26 26 25 25 25 25 25 25 25 25 25 25 26 29 30 32 32 31 30 28 26 26 25 24 23 22 20 20 20 20 21 19 19 19 18 17 18 18 17 19 20 20 19 18 17 15 15 15 16 18 20 19 17 18 18 16 17 19 19 19 18 18 18
32 31 31 31 31 31 31 31 30 30 29 29 29 28 28 28 28 28 28 28 27 27 27 27 26 26 26 25 25 24 25 24 23 24 24 24 23 24 27 29 31 32 32 31 29 27 26 25 25 24 22 21 21 20 19 20 20 19 18 17 18 19 18 18 18 19 19 19 18 17 16 15 15 16 18 21 18 15 16 17 16 17 18 19 19 19 19 18
32 32 32 31 32 32 32 32 31 30 30 30 29 29 29 28 28 28 28 28 28 27 27 26 26 26 26 26 25 24 25 26 24 23 23 23 22 22 24 26 29 31 32 32 30 28 27 26 26 24 23 22 22 21 19 20 20 19 18 17 19 20 19 19 18 18 18 19 19 18 16 15 16 16 17 18 17 16 17 17 17 17 18 19 19 19 19 19
32 32 32 32 32 32 32 32 32 31 31 30 30 30 29 29 28 28 28 28 28 28 27 26 26 26 25 25 25 25 26 27 26 25 23 22 21 22 23 25 28 30 32 33 31 29 28 27 27 25 24 22 22 22 20 20 20 20 18 16 18 19 19 19 19 19 19 19 19 17 16 15 16 16 17 17 16 17 17 18 19 18 19 20 20 20 20 19
32 32 32 32 33 33 32 32 32 32 31 31 30 30 30 29 29 28 28 28 28 28 27 27 26 26 25 25 25 25 25 26 27 26 25 23 21 22 23 24 27 30 31 32 31 30 28 28 27 25 24 23 23 23 21 21 20 19 19 17 18 19 19 18 19 19 18 18 17 16 16 15 15 16 17 17 17 18 18 19 20 19 20 20 20 20 20 20
32 32 32 33 33 33 33 32 32 32 32 31 31 30 30 30 29 29 29 28 28 28 27 27 27 26 26 25 24 24 24 24 26 27 26 25 23 22 23 23 26 28 30 31 31 30 29 27 27 25 24 23 24 23 22 22 19 18 19 19 20 20 19 18 18 19 18 18 17 17 16 15 16 16 17 18 18 18 19 20 20 20 20 20 20 20 20 20
33 33 33 33 32 33 33 32 32 33 32 31 31 31 30 30 30 30 29 29 28 28 28 27 27 27 26 26 26 25 23 24 25 25 26 26 25 24 24 24 25 28 29 30 31 30 29 27 27 25 23 24 24 22 22 22 19 18 18 18 20 19 19 18 19 19 18 17 17 17 16 15 16 16 17 19 19 19 20 20 20 20 20 20 20 20 20 20
34 34 33 33 33 32 32 33 33 33 33 32 31 31 31 30 30 30 30 30 29 29 28 28 27 27 27 28 29 27 25 26 26 26 27 26 26 26 25 25 26 27 29 30 30 30 28 27 28 26 24 24 24 22 22 22 20 19 18 18 18 18 19 19 19 18 19 17 17 17 15 16 17 15 17 20 20 20 20 21 21 20 20 20 20 19 19 19
35 35 34 34 33 33 33 33 33 33 33 33 32 31 31 31 31 31 31 30 29 29 29 28 28 27 28 28 28 29 29 29 28 27 27 27 27 26 26 26 26 27 28 29 30 30 29 27 27 27 24 24 24 22 21 21 21 20 19 18 18 18 19 18 18 18 19 17 17 17 15 15 15 15 18 20 21 21 20 21 21 20 20 20 19 19 18 17
36 36 35 35 35 34 34 33 33 33 33 34 33 32 32 31 31 31 31 31 30 30 29 29 28 28 29 28 27 30 31 30 29 28 27 26 26 26 26 26 26 27 28 28 29 29 29 28 27 26 25 25 24 23 21 20 21 21 20 19 19 19 17 17 17 19 19 17 17 18 15 14 14 14 17 19 19 20 20 21 21 21 21 20 19 20 19 17
37 37 36 36 36 35 35 34 34 34 34 34 34 33 32 32 32 32 32 32 31 31 30 30 29 28 29 28 27 29 29 28 28 28 26 26 26 26 26 26 26 27 27 28 28 29 29 29 27 26 26 25 24 24 22 20 21 21 21 20 20 20 18 16 17 19 20 17 16 17 16 14 13 13 15 17 17 17 18 20 21 21 21 20 20 20 20 18
38 38 38 37 37 37 36 35 35 35 34 34 34 34 33 33 32 32 33 33 33 32 31 30 29 29 28 25 25 26 26 27 27 26 25 25 26 26 25 26 25 26 27 28 28 28 29 29 28 27 26 26 25 25 23 22 22 22 23 20 20 22 19 17 17 19 18 17 16 16 16 14 14 15 16 18 18 17 18 20 20 21 21 21 22 21 20 19
39 38 38 38 38 38 37 36 36 35 35 35 35 35 34 33 33 33 33 33 33 32 31 30 29 29 29 25 24 25 25 25 25 25 24 24 26 26 25 25 25 26 27 27 28 28 28 28 28 27 27 26 26 26 25 25 24 23 23 21 19 21 20 18 17 18 18 18 17 17 16 15 15 16 17 18 19 19 19 20 20 21 21 21 22 22 20 19
38 38 38 39 39 38 38 37 37 36 36 35 35 35 34 34 34 32 32 31 30 30 30 31 29 28 27 27 26 25 24 25 25 25 25 24 26 27 26 25 25 26 27 27 28 29 29 28 28 28 28 28 28 29 27 25 25 24 24 23 20 19 20 20 18 17 19 19 18 18 17 16 16 16 17 18 18 18 18 19 19 19 19 19 18 18 19 18
38 38 38 38 38 38 38 38 37 36 36 35 35 34 34 33 32 31 30 30 29 28 29 30 30 28 25 25 26 25 25 25 25 25 25 25 26 27 27 26 26 27 28 28 29 30 29 28 28 30 31 31 31 30 28 23 24 24 23 23 21 20 20 20 18 17 19 20 19 19 18 17 18 17 17 18 18 16 17 18 17 16 14 14 14 14 16 17
38 38 37 37 37 38 38 38 37 36 35 35 34 33 32 30 30 29 29 30 31 31 30 30 32 31 27 25 24 23 24 25 25 25 25 25 26 27 27 26 26 27 28 29 29 29 30 30 32 32 32 31 30 29 26 23 22 23 23 23 22 21 20 20 19 18 19 20 19 18 17 18 19 19 17 18 18 17 18 17 15 13 11 12 13 12 13 14
38 37 37 37 37 37 37 37 37 37 35 35 34 32 31 30 29 29 29 31 33 34 33 33 33 33 31 28 25 22 23 24 25 26 26 26 27 28 28 27 27 28 28 28 28 28 30 32 32 31 29 29 29 27 26 23 21 22 23 23 22 21 20 20 20 18 18 20 18 17 18 18 19 19 18 18 17 17 18 17 14 11 10 11 13 12 12 13
37 37 37 37 36 36 36 36 36 36 36 35 34 33 32 31 30 29 29 31 32 34 35 34 34 34 33 31 29 26 24 25 26 27 27 28 28 28 28 28 29 28 27 28 28 29 31 32 30 28 28 28 28 27 27 25 22 21 22 23 23 22 20 20 21 18 18 19 19 19 19 17 17 18 17 17 16 15 16 16 14 12 12 13 13 13 14 14
36 36 35 35 35 35 34 34 34 35 35 35 35 34 32 30 29 29 29 30 31 32 34 35 34 34 34 32 31 29 28 27 27 27 27 29 29 28 29 29 28 28 28 30 31 31 31 30 29 28 28 29 28 29 28 26 24 22 22 23 23 22 21 20 21 19 18 18 19 19 18 17 17 17 16 16 16 15 15 15 14 13 13 14 14 15 16 15
34 34 34 33 33 33 32 32 32 33 34 35 35 34 32 31 29 28 28 28 28 29 31 33 33 33 33 31 30 30 30 28 28 27 28 30 29 29 29 29 28 28 29 30 30 31 29 27 28 29 29 29 29 30 30 29 26 23 23 23 22 22 22 20 20 20 19 18 19 19 18 18 20 19 18 17 17 15 15 15 14 14 14 14 13 15 17 16
33 33 32 32 31 30 30 29 29 30 32 33 34 33 31 31 29 27 26 26 27 26 27 29 29 29 30 30 29 29 29 29 30 28 27 30 30 29 29 28 28 29 30 28 28 30 28 27 28 29 29 30 29 30 31 31 28 25 24 24 22 22 22 20 19 20 20 20 20 20 19 19 21 22 20 19 18 17 16 16 15 15 15 15 14 15 17 18
33 32 31 31 30 29 27 27 26 27 29 31 30 29 29 28 26 25 24 25 25 24 24 26 26 26 27 29 29 28 26 27 30 30 28 29 30 29 28 29 28 28 29 28 27 28 28 28 28 29 29 29 29 30 31 30 29 27 25 24 23 22 21 20 19 20 20 20 19 20 21 18 19 23 22 21 20 18 18 17 17 16 16 16 15 15 18 19
32 31 30 29 28 26 25 24 24 24 25 27 27 27 27 26 24 24 23 23 23 23 23 24 24 25 26 28 30 28 24 24 27 30 30 29 29 29 29 30 28 27 28 27 27 27 28 29 28 29 29 30 30 29 29 30 29 27 26 25 24 22 22 21 20 20 20 19 19 20 21 19 18 22 23 22 21 20 20 19 18 17 17 17 17 17 19 20
30 29 28 27 25 23 22 21 21 22 22 22 23 24 25 24 23 23 22 21 20 20 21 22 24 24 24 27 31 28 22 22 25 29 30 29 29 28 28 30 29 28 28 29 28 25 27 29 29 29 29 29 30 28 28 29 27 26 26 25 24 22 22 21 21 20 19 19 21 21 22 21 19 20 22 22 22 22 22 21 19 18 19 19 18 19 20 20
27 26 25 23 21 20 19 19 19 20 20 20 20 21 22 22 22 22 21 20 19 19 20 22 23 23 23 26 30 27 22 21 23 26 29 29 28 27 27 28 28 28 28 29 27 24 25 28 29 29 28 28 27 27 28 29 26 25 25 24 23 21 21 21 21 21 19 20 23 23 23 22 19 20 22 22 22 23 22 21 19 19 20 20 18 19 19 19
25 24 23 20 18 16 15 15 17 18 18 18 18 18 20 22 22 22 21 20 19 18 19 22 22 23 23 25 27 27 24 21 22 25 27 28 28 27 26 26 27 27 26 27 27 25 23 25 27 28 27 26 25 26 28 28 25 24 24 23 22 21 21 21 21 20 20 22 23 23 24 23 20 21 23 23 22 22 21 20 20 20 21 20 19 18 19 19
24 23 21 17 13 11 10 10 14 17 17 16 17 18 21 21 21 22 20 18 17 17 18 21 21 22 24 24 25 27 25 21 22 26 26 27 28 27 26 27 27 27 26 28 28 25 23 24 26 26 26 26 25 26 27 26 26 26 24 24 23 21 21 21 21 21 23 23 22 22 24 24 23 21 22 22 22 22 22 20 20 21 21 21 19 18 19 20
23 22 18 13 9 7 6 8 11 15 15 14 16 19 21 20 20 22 19 16 17 16 17 20 21 22 23 23 23 26 25 22 24 26 27 27 27 27 27 28 29 28 27 29 28 25 24 24 24 24 26 27 27 26 26 26 27 27 26 26 25 22 22 22 22 23 24 22 20 21 23 23 23 21 21 22 21 22 22 20 20 22 22 21 20 18 19 20
22 20 16 10 7 4 5 8 11 14 13 13 16 19 19 17 19 22 19 15 15 15 15 18 20 21 23 22 22 25 24 22 24 26 26 27 27 27 26 26 28 27 26 28 28 26 25 24 25 25 26 28 29 29 29 28 29 30 29 30 28 25 24 25 25 24 23 22 19 20 22 22 21 20 22 23 21 21 22 20 20 22 22 21 19 17 19 20
21 18 13 8 5 1 5 8 11 12 11 13 16 18 18 16 15 19 19 15 14 13 14 16 18 20 22 20 21 25 24 21 24 26 26 27 27 28 27 26 27 26 25 26 27 28 26 24 27 28 25 28 30 29 28 27 28 28 27 28 28 26 25 25 25 23 22 21 20 20 21 21 20 19 21 22 20 19 19 19 20 21 21 20 18 17 19 20
20 16 10 6 2 3 6 8 10 11 10 13 16 18 18 15 12 15 18 15 13 12 13 16 18 20 21 19 20 25 23 21 24 26 25 27 27 27 28 26 26 26 27 27 26 27 26 22 25 26 24 28 29 26 26 27 27 27 26 27 28 27 24 21 21 21 21 19 20 22 21 19 18 18 18 19 20 20 19 19 21 20 20 20 18 18 19 20
18 13 8 4 3 5 6 7 8 10 11 13 16 18 18 13 10 13 15 14 13 12 12 15 17 18 19 19 21 25 23 20 24 25 24 25 26 26 26 25 25 26 27 27 25 26 25 21 23 25 24 27 28 25 27 28 27 26 27 28 28 25 23 22 20 19 20 21 21 22 21 20 19 18 18 19 20 21 21 20 21 20 20 21 19 19 19 20
16 12 7 4 3 4 6 6 7 10 11 13 16 18 17 12 10 13 14 13 12 11 12 14 15 16 18 19 20 24 22 20 23 24 23 24 24 25 27 25 25 25 25 25 24 24 25 21 22 26 25 25 26 26 27 27 25 26 28 28 25 23 23 23 21 20 22 23 22 21 21 22 21 19 18 19 20 22 21 20 20 20 21 21 20 19 19 20
15 10 5 4 3 3 4 5 7 9 10 13 16 17 15 11 10 13 14 13 11 10 10 12 13 15 17 17 19 22 22 21 23 23 22 23 21 24 27 26 25 25 24 25 23 23 25 22 21 26 25 24 25 26 27 27 25 26 26 26 25 25 25 24 22 21 23 23 22 21 21 22 23 22 21 20 20 21 21 20 20 20 21 21 20 21 20 20
13 9 5 3 2 1 3 5 7 8 9 13 16 15 14 12 11 12 14 13 11 9 10 10 12 14 15 16 18 20 20 20 23 22 21 22 20 22 27 25 25 26 24 24 23 22 24 23 21 24 24 23 26 27 29 29 26 25 26 26 26 25 26 25 23 21 22 22 21 21 21 22 23 23 23 22 21 21 21 21 20 20 20 20 20 21 20 20
12 8 5 3 1 2 4 5 7 8 11 13 14 14 14 12 11 11 13 12 10 10 10 10 12 14 14 15 17 19 18 19 21 20 20 22 19 19 25 26 25 27 25 24 23 21 23 23 22 23 23 24 27 29 29 30 29 28 28 28 28 26 25 25 24 22 22 21 20 21 20 20 22 23 24 24 23 23 22 21 21 21 20 19 20 20 20 19
11 7 5 4 2 5 6 6 8 10 12 13 12 13 13 12 11 11 11 11 10 11 11 10 12 13 14 15 16 18 17 18 20 18 18 22 20 17 22 26 26 27 25 25 25 23 22 23 22 23 25 26 25 26 27 29 30 29 28 28 28 26 25 25 26 24 23 20 19 20 20 18 19 20 22 23 23 23 22 21 20 20 20 20 20 20 20 19
12 8 6 5 4 6 6 7 10 11 12 12 11 11 12 11 11 11 10 10 9 11 11 11 12 13 14 15 16 17 18 17 18 18 17 20 20 16 19 25 26 26 26 25 25 24 21 22 22 22 25 25 23 22 25 28 28 27 27 27 26 26 27 27 26 25 24 21 19 18 18 17 17 17 19 20 20 21 22 20 19 19 19 20 20 20 20 20
14 11 8 7 7 7 7 10 11 11 12 12 10 10 11 11 10 10 10 9 8 9 10 11 12 12 13 14 15 17 18 17 17 17 16 18 18 15 17 23 25 26 26 24 24 24 22 22 22 20 21 23 22 21 23 26 27 28 28 27 27 27 28 26 24 23 24 24 21 20 18 18 17 16 17 19 18 20 21 20 19 19 19 20 21 20 20 20
15 13 11 9 8 9 10 11 11 11 11 11 10 10 11 10 9 10 10 9 9 9 9 11 12 11 12 13 15 16 17 16 16 16 16 16 15 14 17 23 24 25 25 24 24 24 22 21 22 21 20 22 23 22 24 27 29 30 29 29 28 27 26 25 23 23 25 27 26 23 20 18 16 15 18 19 19 20 21 20 20 19 19 20 21 20 20 20
14 13 12 11 10 10 10 10 11 11 10 10 10 10 10 9 9 10 10 8 9 10 10 11 11 11 11 12 13 16 16 17 16 15 16 16 15 14 17 22 24 23 23 24 25 24 21 20 23 22 22 24 25 24 26 28 28 28 29 30 30 28 27 26 25 25 26 26 27 27 22 19 18 17 18 20 20 21 21 20 20 20 20 21 21 21 21 21
15 14 13 12 12 11 10 10 10 10 9 10 10 9 9 9 9 9 9 8 9 10 10 11 11 12 12 11 12 14 15 16 17 15 15 16 15 13 15 20 22 22 22 24 26 24 20 20 22 22 21 22 22 21 22 25 27 28 29 31 31 29 28 26 25 27 26 24 26 27 24 22 22 20 19 20 20 20 20 20 20 21 21 21 21 21 21 20
16 15 14 13 11 10 9 9 8 8 9 9 9 8 7 8 8 9 8 7 8 9 10 12 12 12 12 11 11 13 13 15 16 16 15 16 15 13 14 17 20 22 23 24 25 23 20 20 22 21 19 19 19 19 21 24 27 28 28 29 30 29 28 28 28 27 25 24 25 25 24 24 24 24 22 20 19 19 20 21 21 21 22 22 22 22 21 20
17 16 15 13 11 10 9 9 9 9 9 8 8 7 6 7 8 7 7 7 7 9 10 11 13 13 12 12 11 11 12 13 15 15 15 15 15 14 15 16 17 21 23 23 24 22 21 21 21 20 19 17 17 18 20 22 23 25 27 28 29 30 30 31 30 26 26 26 24 23 25 25 24 26 26 23 20 19 20 21 21 21 21 21 22 22 22 21
16 15 14 12 11 9 8 9 9 9 8 7 6 6 7 7 7 7 8 7 7 9 11 11 11 12 13 13 12 11 11 12 14 14 14 15 14 14 16 16 16 19 22 23 23 21 20 20 20 20 19 17 16 17 19 20 21 22 25 27 28 30 31 31 30 27 27 27 23 22 25 24 22 24 26 23 20 19 19 20 21 22 22 22 22 22 22 22
15 14 12 11 9 8 7 7 8 7 6 6 6 7 7 7 7 7 8 8 7 9 11 11 9 10 11 13 13 12 11 12 13 14 14 15 14 13 15 15 16 18 21 22 22 22 21 20 20 20 19 17 16 16 18 20 20 21 22 25 27 29 30 31 30 28 28 27 24 24 25 23 21 22 23 22 20 19 20 21 22 23 23 23 22 22 22 22
12 11 11 10 8 7 7 7 7 6 6 6 6 6 6 7 7 6 6 8 8 8 10 9 8 8 10 12 13 12 11 12 13 14 14 14 14 13 13 14 15 18 21 22 21 22 21 19 18 20 19 17 17 18 18 19 19 20 22 24 27 29 29 29 29 28 29 28 25 26 26 24 22 21 22 22 21 20 20 22 23 23 24 24 23 22 22 22
12 10 9 8 7 6 5 5 6 5 5 5 5 5 6 6 6 5 6 7 7 8 9 8 7 8 9 10 11 10 11 12 13 13 14 14 14 14 13 13 14 16 19 21 20 20 21 20 19 20 19 17 17 18 18 18 18 20 22 23 26 27 26 27 27 27 28 27 26 27 26 24 23 23 23 23 23 22 21 22 23 23 24 24 23 22 22 22
Wind_Direction
282 280 279 279 278 277 276 275 274 274 274 273 273 272 271 270 268 267 266 265 264 263 262 261 260 260 260 260 259 259 257 255 252 248 244 241 239 238 237 237 236 235 236 236 234 234 234 234 233 232 232 233 235 233 232 233 231 231 234 235 236 235 234 232 230 229 229 230 235 243 244 244 239 225 219 211 203 198 197 201 201 202 204 199 192 185 185 191
283 280 278 278 277 277 276 274 274 273 273 272 272 272 271 270 269 268 266 265 264 263 262 261 260 260 260 260 260 259 257 254 251 247 243 240 239 238 238 237 236 233 233 234 232 230 230 232 231 229 230 231 233 232 231 232 230 232 234 235 235 233 232 231 230 229 228 231 241 243 238 241 235 221 215 210 204 198 196 200 199 195 196 193 186 185 186 189
285 281 279 277 276 276 275 274 273 272 272 271 271 271 271 270 269 268 267 265 264 263 261 260 260 259 259 259 259 259 257 253 249 243 240 239 239 239 238 236 234 231 230 232 231 228 229 230 227 227 228 229 231 230 230 230 230 233 233 234 234 230 232 231 229 229 228 232 241 240 236 239 232 221 214 207 205 205 202 202 201 197 194 192 189 189 189 190
286 283 280 278 276 274 274 274 273 272 271 270 270 270 270 270 269 268 267 265 264 263 261 260 259 259 259 259 258 257 255 251 244 238 237 238 239 240 238 235 232 229 227 228 228 227 227 226 225 226 226 228 229 228 229 229 229 231 231 233 231 227 230 230 227 230 231 230 234 238 240 238 232 225 215 203 205 211 209 207 207 200 194 192 191 192 192 193
286 284 282 279 277 275 273 272 272 271 270 269 269 269 269 269 268 267 266 265 264 262 261 260 259 259 259 257 256 255 250 246 239 234 236 237 239 241 238 234 230 226 225 225 226 226 226 224 223 224 226 227 226 226 229 227 227 230 230 232 228 224 228 229 227 229 229 228 232 237 240 238 233 227 212 202 206 212 210 210 211 203 195 192 192 193 194 195
286 285 282 280 278 276 274 272 271 270 270 269 268 268 268 268 268 266 265 264 263 262 261 259 258 258 258 257 255 250 244 242 238 233 236 237 239 242 238 233 227 223 222 222 223 223 223 222 221 222 225 226 224 225 227 224 226 230 229 228 226 225 228 229 229 229 227 228 233 235 235 235 232 224 210 204 208 213 212 209 206 202 198 193 191 194 195 196
286 285 283 281 279 277 274 272 271 270 269 268 267 267 267 267 267 266 264 263 261 261 260 259 258 257 257 256 252 245 241 241 238 234 237 238 239 241 237 231 224 221 219 219 220 221 221 219 219 221 222 224 224 224 225 222 225 230 228 225 225 225 228 230 230 230 228 229 233 234 233 231 227 219 208 206 209 211 209 205 200 199 199 195 193 195 196 197
286 285 283 282 280 277 275 273 271 269 268 268 267 266 266 266 266 265 264 262 261 259 259 258 257 256 255 254 250 245 242 240 237 234 237 238 238 239 234 229 224 220 218 218 218 219 219 218 218 219 221 224 223 222 222 221 223 228 226 223 224 224 227 229 229 230 228 229 232 231 230 227 223 213 203 203 205 204 202 199 197 197 198 197 196 196 197 197
287 285 283 282 280 278 275 273 271 269 268 267 266 265 265 264 264 264 263 262 261 258 257 256 255 255 253 251 248 245 242 238 236 234 236 237 237 236 231 228 223 219 219 218 217 217 217 217 217 218 222 222 220 220 220 221 223 224 223 223 225 225 227 228 226 226 226 226 226 226 225 218 213 208 203 203 202 199 198 198 196 196 198 199 200 199 197 197
288 286 284 282 280 278 275 272 270 269 268 267 266 264 263 263 262 262 262 261 260 258 256 255 254 253 250 247 244 242 239 237 235 233 235 237 237 235 230 228 224 220 219 218 216 216 217 218 217 218 221 220 219 219 219 221 222 220 220 223 226 228 229 228 224 222 222 223 222 222 221 212 209 211 209 204 201 199 197 197 197 198 199 200 201 201 199 199
288 287 284 282 280 278 275 273 270 268 267 266 265 264 263 262 261 260 260 259 259 257 255 253 252 250 248 245 241 239 237 235 234 234 237 238 237 234 231 229 225 220 218 217 216 215 216 217 215 217 220 218 216 219 220 220 221 219 218 221 224 226 227 224 222 221 219 220 218 216 216 212 212 214 210 202 200 200 197 198 199 199 200 201 201 200 201 203
289 287 285 283 280 278 275 273 270 268 267 265 264 263 262 261 260 260 259 258 257 256 254 252 251 248 247 244 240 238 238 238 239 240 239 238 237 233 231 229 224 220 217 216 215 214 215 215 214 216 219 217 214 218 220 219 219 219 218 221 223 224 225 219 218 217 212 215 214 210 212 212 212 214 208 202 201 202 200 200 201 200 201 201 201 200 203 206
289 287 285 283 281 278 275 272 270 268 266 265 264 263 262 261 259 259 258 257 256 255 253 251 249 247 246 243 239 239 241 242 243 243 240 237 235 231 228 225 222 219 216 215 214 213 213 214 214 216 217 216 215 218 219 217 218 217 217 221 223 224 224 216 213 211 208 213 209 208 214 210 208 213 207 202 202 203 203 203 202 201 201 201 201 201 205 211
288 287 285 283 281 278 275 272 270 269 267 265 263 262 261 260 259 258 257 256 255 254 251 250 248 246 244 242 243 244 243 243 242 240 238 234 231 228 225 222 219 217 214 213 213 212 213 213 213 215 217 217 216 218 218 217 217 215 215 219 221 221 219 215 212 207 206 211 206 207 215 208 204 210 206 203 204 204 203 202 202 201 201 202 203 204 208 214
288 286 284 282 280 278 275 272 270 268 266 265 263 261 260 259 258 257 256 255 254 252 250 248 245 243 244 243 244 244 239 237 237 235 233 229 227 225 222 218 216 214 212 211 211 211 212 212 213 215 216 216 216 216 216 216 216 214 214 217 218 217 216 216 213 208 207 208 206 209 211 207 206 208 204 203 205 206 205 202 203 204 203 204 206 206 208 208
288 286 284 282 279 277 275 272 270 267 265 264 262 261 259 259 258 257 256 255 253 250 246 245 242 240 242 241 240 239 234 231 231 231 229 225 222 221 218 215 212 211 210 210 210 210 211 211 213 215 215 214 214 214 213 214 214 214 215 215 215 214 214 214 212 211 210 206 206 211 211 207 208 207 202 201 200 202 206 206 205 206 206 206 207 206 204 204
288 286 283 281 279 276 274 271 269 267 265 263 261 260 258 258 257 257 256 254 250 246 242 241 240 238 238 238 238 237 232 229 229 228 225 222 220 217 216 214 211 209 207 207 208 208 209 211 212 213 214 214 213 212 211 213 212 212 213 213 214 213 212 212 210 211 211 208 207 210 211 209 208 206 202 202 201 201 205 206 207 208 209 210 206 202 201 201
290 287 284 281 278 276 273 271 268 266 264 262 260 259 258 257 257 255 253 249 245 241 240 239 237 237 236 234 236 235 231 229 228 227 224 221 218 215 215 214 211 207 205 206 208 208 209 211 212 212 213 213 212 211 211 213 211 208 209 210 212 212 211 211 209 210 211 210 208 207 210 209 207 206 204 205 205 205 206 206 208 208 210 211 203 197 197 197
291 288 285 282 279 276 273 270 267 265 262 260 259 257 257 255 253 251 247 242 238 238 239 235 231 233 235 231 232 233 232 230 228 225 222 219 216 213 213 213 210 207 206 208 209 209 209 210 211 213 213 211 211 211 211 213 210 207 209 209 209 210 212 212 209 210 211 210 208 208 209 207 207 207 207 209 209 211 209 207 211 210 206 205 200 197 196 196
292 290 287 284 280 277 273 269 266 263 261 258 256 255 253 251 249 246 242 238 237 238 239 234 229 232 236 232 229 231 230 227 226 223 219 217 214 211 210 211 209 209 210 209 208 209 209 212 214 214 213 209 209 210 210 213 210 206 208 209 209 209 211 211 210 211 212 211 210 211 208 206 209 209 208 209 210 213 210 207 212 211 204 201 203 208 205 200
294 291 288 285 282 279 274 270 265 261 258 255 252 251 248 246 246 245 243 241 239 239 239 237 232 232 234 231 228 229 229 227 226 222 218 216 212 210 209 209 209 211 211 207 207 209 211 214 215 213 211 208 208 210 209 211 211 208 208 208 209 210 210 211 211 213 214 213 213 212 208 207 211 210 208 208 209 214 212 210 212 208 206 203 206 213 213 210
296 293 290 286 283 279 275 271 265 259 255 251 248 247 246 245 245 245 244 243 241 239 238 237 234 233 233 232 230 229 228 227 227 223 217 213 213 212 209 208 210 211 209 207 207 209 213 216 213 209 209 207 208 210 209 210 210 211 210 208 208 209 210 212 213 214 215 214 213 211 209 209 213 213 210 209 210 214 213 214 216 210 208 209 209 210 210 212
299 296 292 289 284 280 276 271 265 257 252 248 245 244 244 243 242 243 244 243 243 239 235 234 232 230 230 230 228 226 224 222 223 223 216 211 212 212 209 208 209 208 208 209 209 209 213 215 209 207 207 205 207 209 208 209 210 211 210 208 208 207 209 211 212 215 215 213 212 210 211 213 215 213 212 211 211 213 212 214 219 215 212 213 211 206 204 205
301 298 294 291 286 281 276 271 265 257 249 244 242 241 241 241 241 242 242 242 242 238 233 231 229 227 225 224 222 219 219 218 219 220 215 210 210 210 210 208 206 207 210 210 210 211 213 212 206 206 206 204 207 208 208 210 210 210 209 208 207 206 208 211 213 215 215 213 209 207 211 215 216 214 214 215 213 213 212 213 217 216 215 215 210 206 204 202
303 300 296 292 287 282 277 271 265 256 246 241 240 239 239 238 238 238 237 239 240 235 230 228 226 224 221 218 216 215 216 218 218 218 214 210 208 208 210 209 208 209 208 207 210 212 214 212 206 205 207 205 206 209 209 210 210 210 210 209 208 204 206 211 214 214 213 214 212 212 215 216 217 216 214 216 215 214 215 213 214 215 213 212 207 206 204 200
305 302 298 294 289 283 277 270 263 254 244 238 236 234 234 233 232 232 232 235 237 231 225 222 220 218 214 212 211 210 214 217 217 215 213 210 208 208 208 208 210 209 205 206 211 213 213 212 208 205 206 205 207 210 210 209 210 212 210 207 208 206 206 210 214 213 214 216 215 217 220 218 217 218 216 215 214 214 216 214 213 215 214 212 208 203 200 199
307 304 300 296 290 283 276 268 260 250 240 234 230 228 229 228 226 226 226 231 233 224 219 218 216 212 211 209 205 206 212 213 211 211 211 209 207 209 209 207 208 208 206 206 210 213 210 208 209 205 204 206 208 209 210 209 210 212 209 204 206 207 206 210 213 214 216 219 218 217 221 221 220 219 217 216 214 213 216 215 213 214 214 214 209 204 203 203
311 308 304 298 291 282 274 266 255 242 232 227 223 224 225 222 219 218 220 225 223 215 213 213 210 209 209 206 202 206 211 207 207 208 207 206 206 208 209 208 206 204 204 206 208 211 209 207 208 204 204 209 209 208 207 207 210 212 208 204 205 206 207 210 214 217 218 221 221 216 216 221 222 220 218 216 215 215 215 215 215 213 213 213 210 207 206 205
316 313 309 302 294 284 273 261 247 232 223 219 219 221 218 212 211 212 216 219 212 210 211 207 205 206 204 202 203 208 210 207 208 205 201 204 207 207 208 207 204 200 204 208 208 210 211 209 207 206 207 209 208 206 205 206 210 210 205 203 206 207 209 212 217 219 220 224 223 215 213 220 224 221 219 217 218 218 217 216 216 214 212 211 209 207 206 204
323 320 316 307 297 287 272 253 234 219 214 214 216 215 207 203 206 207 210 213 210 210 209 203 203 203 199 200 204 207 208 208 205 199 199 203 205 207 206 203 202 200 204 208 208 210 212 209 208 209 210 208 206 205 205 206 206 203 201 202 205 209 211 214 218 219 222 225 222 214 214 221 226 223 220 221 221 219 218 218 216 214 213 212 209 207 204 202
330 328 324 314 303 290 267 240 218 206 204 208 209 204 198 199 204 203 204 207 205 205 205 201 200 198 196 200 203 203 205 206 201 197 199 201 203 204 202 199 200 200 202 205 206 208 208 206 207 210 209 205 203 204 206 206 202 201 202 201 202 206 208 212 214 215 221 222 218 214 215 220 227 225 220 223 224 219 217 216 213 211 211 210 208 206 202 201
336 335 332 323 311 293 249 215 199 193 195 200 200 194 193 198 203 202 202 203 200 201 201 199 198 198 198 201 202 199 200 202 200 198 199 199 202 204 202 201 199 197 201 202 202 204 205 206 208 208 206 203 201 201 203 204 202 202 201 199 200 203 205 209 210 212 218 219 217 216 216 220 227 227 221 220 221 219 217 214 209 207 207 206 206 204 200 199
338 337 336 331 320 293 215 192 185 185 189 194 193 188 190 199 200 198 199 197 194 197 198 197 199 199 198 200 200 197 198 200 198 198 199 198 201 203 205 206 201 201 202 198 197 200 203 207 208 205 204 204 202 200 201 202 202 202 200 199 202 203 204 208 209 213 217 217 217 215 215 223 228 226 224 221 220 218 215 211 206 204 203 203 204 202 198 197
341 340 340 338 333 244 175 175 177 182 187 190 187 184 189 197 196 193 195 194 192 195 198 199 199 197 196 199 198 194 196 200 197 197 198 198 200 201 203 204 203 204 200 196 199 200 201 205 205 203 203 203 203 205 203 200 201 204 203 203 206 207 208 209 209 212 214 215 216 213 216 224 224 224 227 225 223 219 212 205 203 204 204 203 202 201 196 195
345 347 349 352 20 125 152 163 173 182 186 186 184 184 186 188 188 188 191 194 195 199 203 200 196 193 194 198 196 193 197 200 196 196 198 199 200 201 201 201 203 203 199 197 202 202 202 206 206 205 206 202 202 206 204 199 201 205 205 206 209 209 209 211 213 214 213 215 216 214 218 224 222 225 224 219 218 214 206 200 200 203 203 201 201 200 196 195
350 355 1 18 71 121 145 158 171 179 183 184 183 183 182 180 184 185 185 188 192 201 204 195 190 191 193 194 193 194 199 199 194 195 198 199 201 201 201 200 202 203 201 199 200 201 201 204 206 207 208 205 202 201 203 203 202 203 205 207 208 207 208 210 212 214 215 219 219 216 218 220 221 224 217 210 209 207 204 201 199 200 200 200 202 201 199 198
356 1 13 40 78 119 143 156 167 175 182 181 179 179 178 180 186 182 179 180 184 194 195 186 187 191 190 191 191 192 196 195 193 195 197 198 201 201 200 200 201 203 202 200 201 204 201 200 204 205 204 206 204 200 203 207 204 203 206 205 203 205 210 211 210 211 214 219 219 216 217 218 220 222 213 206 205 203 202 200 198 199 199 201 203 202 200 199
359 5 24 52 71 118 145 154 164 174 179 176 175 177 178 181 183 176 175 176 179 185 183 177 185 189 186 188 190 191 193 192 192 195 195 196 202 201 199 200 201 200 202 201 202 205 203 200 203 205 203 203 203 202 203 206 208 207 205 203 201 205 209 208 210 211 212 217 219 216 217 219 220 217 209 205 203 202 201 200 199 200 199 201 203 201 200 201
2 10 29 42 35 132 152 152 159 171 172 169 173 177 178 178 176 170 171 175 177 182 178 174 182 186 185 186 188 190 193 192 191 193 194 196 201 202 199 200 201 200 201 200 199 202 203 201 202 205 204 199 200 204 204 203 206 206 203 203 206 210 210 209 211 212 212 215 218 216 217 221 221 215 208 207 206 203 201 201 202 201 200 201 202 201 201 203
6 14 25 13 0 151 152 150 153 158 160 163 169 174 175 176 172 166 168 173 178 181 180 179 180 182 183 184 186 189 192 191 189 192 196 196 198 202 201 200 199 199 200 199 199 201 202 202 202 201 202 202 202 206 205 202 202 202 203 204 205 208 210 210 212 214 214 215 216 218 221 221 219 215 210 208 208 206 203 204 204 201 199 200 200 200 201 203
10 17 18 13 84 144 145 145 146 148 154 160 165 168 172 174 174 170 168 173 180 183 185 185 181 181 182 183 185 189 189 188 188 191 193 194 197 202 203 201 197 197 199 199 200 201 201 202 202 200 203 206 205 205 205 203 203 204 206 205 205 205 205 207 211 214 214 216 216 218 221 219 217 218 214 210 209 209 205 203 203 199 197 198 198 198 201 201
17 20 20 37 107 137 139 141 142 144 151 157 158 162 168 171 171 171 172 174 177 180 184 184 180 180 181 182 185 189 189 187 188 191 191 193 198 201 200 198 195 195 197 199 200 202 202 201 201 202 205 207 206 206 207 205 204 207 209 208 206 207 207 209 213 211 210 215 215 215 219 217 215 219 217 211 209 208 204 201 199 197 196 196 195 196 199 199
27 32 41 68 106 124 130 135 138 143 149 154 155 159 165 166 166 168 172 175 175 175 178 180 180 179 179 180 183 186 188 188 189 192 192 193 197 198 195 194 193 194 196 198 198 199 201 201 201 200 202 206 208 208 208 206 204 207 210 207 207 210 210 212 215 212 211 215 214 214 217 215 214 219 216 209 205 204 202 200 197 197 197 195 194 196 198 198
32 41 54 75 101 114 119 125 134 140 145 149 152 156 159 160 163 168 171 172 172 172 173 175 177 178 177 180 182 184 188 189 189 192 194 194 195 195 191 190 192 194 197 198 197 196 199 201 201 197 195 200 203 203 205 206 206 208 208 206 207 208 208 211 213 213 216 216 214 216 217 213 213 216 211 205 203 202 202 200 198 198 198 198 198 199 200 199
35 47 60 76 96 109 115 122 129 134 136 140 144 149 152 153 158 168 172 171 171 173 175 176 178 179 180 180 182 183 187 188 187 191 194 193 194 194 188 188 191 193 196 197 194 194 198 201 201 201 199 200 202 203 204 204 205 207 207 206 207 206 205 209 210 212 215 213 212 215 216 212 213 211 206 205 204 203 202 200 200 200 200 202 202 201 202 202
41 51 64 80 94 104 115 124 128 128 129 133 137 141 144 146 152 164 171 172 171 174 177 177 176 178 178 178 179 182 185 187 188 191 194 192 193 195 190 188 190 191 192 191 189 192 199 201 202 204 205 205 207 207 206 204 204 206 206 206 207 206 206 208 209 212 213 210 213 216 213 211 212 211 207 205 204 204 203 201 201 200 201 203 204 203 204 207
48 55 64 78 91 100 111 120 125 126 126 128 132 134 137 144 150 155 160 162 165 171 174 173 174 175 173 172 176 180 182 184 187 190 193 192 193 195 191 189 191 191 190 189 188 192 198 200 200 202 203 205 206 205 205 206 207 207 206 206 207 207 207 209 212 212 209 210 215 215 211 212 214 212 210 209 207 207 206 204 202 201 200 201 203 204 205 206
51 56 62 69 78 91 102 111 121 128 129 127 130 136 141 148 151 150 150 152 157 166 166 165 169 174 176 174 172 174 178 180 182 185 188 188 190 192 189 189 193 193 192 191 192 195 199 199 199 200 199 199 202 204 204 206 208 209 208 207 207 207 208 211 214 212 209 213 217 213 212 216 215 213 213 214 212 210 207 205 204 201 200 200 200 201 202 202
51 54 58 61 67 80 91 104 117 123 126 128 135 146 148 150 150 149 148 146 147 158 163 163 164 168 174 177 172 171 176 177 177 180 183 185 187 189 187 187 191 194 192 192 195 198 200 200 199 199 198 199 204 206 205 204 206 208 210 211 210 209 210 213 214 212 213 217 217 211 213 217 217 215 214 214 213 209 206 205 204 202 201 199 199 199 200 200
49 50 54 58 67 80 89 103 116 118 119 127 138 147 149 153 155 152 151 149 142 147 158 162 162 162 168 173 174 177 178 176 175 177 179 182 184 185 187 189 191 191 190 192 196 199 200 200 199 199 201 204 207 208 205 205 206 208 211 213 212 211 212 214 214 213 215 219 217 214 216 219 219 216 212 211 211 208 207 206 204 203 202 200 200 200 201 202
39 42 45 49 60 73 82 96 109 113 116 127 139 146 151 158 160 155 153 154 152 155 161 162 163 165 166 167 173 182 184 181 182 183 181 182 183 184 187 190 191 189 189 192 195 198 199 199 198 199 202 204 205 206 205 204 207 212 213 212 211 211 212 214 215 214 216 217 215 217 221 221 217 212 210 211 211 210 209 208 205 205 203 200 201 202 203 203
25 28 31 35 46 61 71 86 104 112 118 133 152 159 159 162 163 160 161 159 158 164 169 167 166 171 173 171 173 181 185 185 188 189 184 183 186 187 187 190 191 189 190 192 194 196 197 196 197 200 202 202 203 207 206 204 209 216 215 211 210 212 213 214 216 217 217 216 216 220 223 219 213 210 209 211 212 212 211 208 206 205 202 201 201 202 203 203